Location: Boćki
(52.6512°N, 23.0459°E)
Time: 08:26:38
(UTC+02:00)

ISS - Pass Details

Date: 22 March 2019
Orbit: 408 x 410 km, 51.6° (Epoch: 25 April)

Event Time Altitude Azimuth Distance (km) Brightness Sun altitude
Rises 19:33:15 0° 220° (SW) 2,327 0.2 -16.8°
Reaches altitude 10° 19:35:33 10° 206° (SSW) 1,469 -1.0 -17.2°
Enters shadow 19:36:53 18° 188° (S) 1,066 -1.9 -17.3°
